World > North America > United States > South Carolina > Ridgeville  

Ridgeville, SC Hourly Weather Updates

Feedback E-mail the Weather

Quick Clicks

Ridgeville, SC Weather Maps

°F °C°F °C
Ridgeville Weather Map
UTC Time: 5/22/2024, 05:12
Your Time:

Ridgeville, SC Regional Weather

Expires:202405220600;;640938
ASUS42 KCHS 220510
RWRCHS

Regional Weather Roundup
National Weather Service Charleston SC
100 AM EDT WED MAY 22 2024

NOTE: "fair" indicates few or no clouds below 12,000 feet with no
significant weather and/or obstructions to visibility.

Not all stations are quality controlled. Use data with caution,
especially dewpoint observations.


SCZ027-030-031-034>040-042>050-220600-
...Southeast South Carolina...
  
CITY           SKY/WX    TMP DP  RH WIND       PRES   REMARKS
N Charleston   CLEAR     67  63  87 N3        30.02R                  
Waterfront Prk   N/A     72  69  90 VRB2      29.87R                  
Mount Pleasant CLEAR     66  66 100 CALM      30.02R                  
Johns Island   CLEAR     66  66 100 CALM      30.02S                  
Pinopolis        N/A     68  64  88 CALM        N/A                   
Moncks Corner  CLEAR     63  61  94 CALM      30.03S                  
Summerville    CLEAR     63  63 100 CALM      30.01F                  
Beaufort MCAS  CLEAR     72  69  90 SE3       30.01F                  
Beaufort Arpt  CLEAR     68  64  88 SE3       30.01S                  
Hilton Head Is CLEAR     68  66  94 CALM      30.02S                  
Walterboro     CLEAR     63  63 100 CALM      30.03S                  
Allendale      CLEAR     66  66 100 CALM      30.01S                  

...Southern Midlands and Pee Dee...
  
CITY           SKY/WX    TMP DP  RH WIND       PRES   REMARKS
Georgetown     CLEAR     63  61  94 CALM      30.03S                  
Kingstree      CLEAR     59  55  88 CALM      30.04R                  
Orangeburg     CLEAR     68  63  84 CALM      30.02S                  
Barnwell       CLEAR     68  64  88 CALM      30.02S                  
Aiken          NOT AVBL                                               
Manning        CLEAR     61  61 100 CALM      30.02F                  
Columbia       CLEAR     70  62  76 CALM      30.01R                  
Sumter         CLEAR     67  62  83 CALM      30.00S                  
Florence       CLEAR     64  60  87 CALM      30.03R                  
Myrtle Beach   CLEAR     69  68  96 CALM      30.03R                  
N Myrtle Beach CLEAR     70  64  81 S3        30.02S                  

$$
 

SKY/WX - Weather  TMP - Temperature  DP - Dew Point  RH - Humidity
WIND - Wind Direction/Speed PRES - Barometric Pressure VSB - Visibility
WCI - Wind Chill Index E13G22 Wind - East Wind 13 mph/Gusts of 22 mph

Trending Headlines

Trending Entertainment Headlines

Ridgeville Radar Loop

Use the map search tool if you want to place a location marker on the radar map...

Ridgeville Quick Facts

National Two Day Weather Forecast


E-mail the Ridgeville Weather Forecast

Voice your opinion or tell us about page issues...